Powrót do katalogu

FENGYUN 1C DEB

LostPO
NORAD 38785·DEBRIS·🇨🇳 China

Wystrzelony May 10, 1999 z Taiyuan Satellite Launch Center

Loading…

Następne Przeloty (najbliższe 24 godziny)

TLE

NieaktualneSource: Space-Track

Epoka: Feb 15, 2023, 17:51 UTC

1 38785U 99025ETZ 23046.74425456  .00010937  00000-0  59453-2 0  9996
2 38785  98.0227  38.8515 0205707 219.9543 138.6334 14.02221569464773

Śledź FENGYUN 1C DEB w czasie rzeczywistym z AllMySat

Download on the App Store